Location: Unnamed
(47.9062°N, 20.3783°E)
Time: 20:02:39
(UTC+02:00)

ISS - Visible Passes

Search period start: 24 September 2021 00:00
Search period end: 04 October 2021 00:00
Orbit: 419 x 423 km, 51.6° (Epoch: 24 September)

Date Brightness Start Highest point End Pass type
(mag) Time Alt. Az. Time Alt. Az. Time Alt. Az.
24 Sep -3.0 19:26:15 10° W 19:29:32 50° NNW 19:32:32 12° ENE visible
24 Sep -1.9 21:03:28 10° WNW 21:05:32 30° NW 21:05:32 30° NW visible
25 Sep -2.9 20:16:31 10° WNW 20:19:45 42° N 20:20:21 38° NE visible
26 Sep -2.8 19:29:30 10° WNW 19:32:44 42° N 19:35:10 16° ENE visible
26 Sep -1.5 21:06:31 10° WNW 21:08:10 26° WNW 21:08:10 26° WNW visible
27 Sep -3.4 20:19:36 10° WNW 20:22:56 54° NNE 20:22:59 54° NNE visible
28 Sep -3.1 19:32:39 10° WNW 19:35:55 47° N 19:37:48 22° ENE visible
28 Sep -1.2 21:09:32 10° WNW 21:10:48 21° WNW 21:10:48 21° WNW visible
29 Sep -3.6 20:22:35 10° WNW 20:25:39 71° WNW 20:25:39 71° WNW visible
30 Sep -3.7 19:35:39 10° WNW 19:39:01 70° NNE 19:40:32 30° E visible
30 Sep -0.8 21:12:45 10° W 21:13:31 15° W 21:13:31 15° W visible
01 Oct -3.4 18:48:42 10° WNW 18:52:02 56° NNE 18:55:22 10° E visible
01 Oct -2.6 20:25:39 10° WNW 20:28:27 38° SW 20:28:27 38° SW visible
02 Oct -3.4 19:38:38 10° WNW 19:41:58 60° SSW 19:43:27 29° SE visible
03 Oct -3.7 18:51:40 10° WNW 18:55:03 85° SSW 18:58:26 10° ESE visible
03 Oct -1.4 20:29:10 10° W 20:31:30 18° SW 20:31:31 18° SW visible
